FW8114 Weather Reports


time (UTC)temp
C
wind
direction
speed
KPH
gust
KPH
rain 1hr
cm
rain 24hr
cm
rain mn
cm
humidity
%
barometer
mb
20260505200807 28 259 4.8 8.0 0.00 0.00 0.00 33 1008.1
20260505200304 28 216 12.9 20.9 0.00 0.00 0.00 33 1008.1
20260505195758 28 258 8.0 11.3 0.00 0.00 0.00 33 1008.4
20260505195257 28 247 17.7 27.4 0.00 0.00 0.00 33 1008.4
20260505194753 27 257 19.3 25.7 0.00 0.00 0.00 34 1008.5
20260505194250 27 231 14.5 17.7 0.00 0.00 0.00 35 1008.5
20260505193745 27 266 11.3 14.5 0.00 0.00 0.00 36 1008.5
20260505193244 28 218 4.8 4.8 0.00 0.00 0.00 35 1008.5
20260505192742 28 154 14.5 20.9 0.00 0.00 0.00 35 1008.6
20260505192239 28 181 6.4 9.7 0.00 0.00 0.00 36 1008.6
20260505191737 27 266 6.4 11.3 0.00 0.00 0.00 37 1008.9
20260505191235 27 248 4.8 8.0 0.00 0.00 0.00 37 1009.0
20260505190731 28 228 8.0 11.3 0.00 0.00 0.00 36 1009.0
20260505190231 27 140 9.7 12.9 0.00 0.00 0.00 37 1008.9
20260505185728 27 254 11.3 14.5 0.00 0.00 0.00 37 1009.0
20260505185225 28 192 12.9 16.1 0.00 0.00 0.00 36 1009.1
20260505184720 28 193 8.0 11.3 0.00 0.00 0.00 34 1009.0
20260505184218 28 218 11.3 17.7 0.00 0.00 0.00 36 1009.2
20260505183715 28 225 6.4 9.7 0.00 0.00 0.00 38 1009.1
20260505183212 27 236 4.8 8.0 0.00 0.00 0.00 37 1009.4
20260505182708 27 240 8.0 12.9 0.00 0.00 0.00 38 1009.5
20260505182206 27 229 14.5 20.9 0.00 0.00 0.00 37 1009.5
20260505181702 27 205 8.0 12.9 0.00 0.00 0.00 38 1009.6
20260505181200 28 213 11.3 14.5 0.00 0.00 0.00 37 1009.4
20260505180655 28 222 11.3 16.1 0.00 0.00 0.00 38 1009.6
20260505180153 28 249 8.0 11.3 0.00 0.00 0.00 38 1009.5
20260505175649 28 228 12.9 17.7 0.00 0.00 0.00 38 1009.7
20260505175145 27 211 19.3 25.7 0.00 0.00 0.00 38 1009.5
20260505174642 27 243 8.0 9.7 0.00 0.00 0.00 39 1009.5
20260505174138 27 191 4.8 8.0 0.00 0.00 0.00 41 1009.5
20260505173635 28 199 4.8 8.0 0.00 0.00 0.00 42 1009.9
20260505173132 28 242 3.2 8.0 0.00 0.00 0.00 42 1009.8
20260505172629 28 222 0.0 1.6 0.00 0.00 0.00 43 1009.7
20260505172126 27 238 11.3 12.9 0.00 0.00 0.00 41 1009.7
20260505171621 27 235 6.4 11.3 0.00 0.00 0.00 40 1009.7
20260505171118 27 240 11.3 14.5 0.00 0.00 0.00 41 1009.8
20260505170615 27 212 11.3 16.1 0.00 0.00 0.00 43 1010.0
20260505170111 27 178 6.4 11.3 0.00 0.00 0.00 41 1009.9
20260505165606 26 231 8.0 11.3 0.00 0.00 0.00 41 1010.1
20260505165102 26 244 6.4 8.0 0.00 0.00 0.00 43 1010.2
20260505164558 26 240 14.5 17.7 0.00 0.00 0.00 43 1010.3
20260505164056 26 236 17.7 20.9 0.00 0.00 0.00 42 1010.3
20260505163554 26 258 11.3 14.5 0.00 0.00 0.00 43 1010.3
20260505163051 26 225 16.1 22.5 0.00 0.00 0.00 42 1010.4
20260505162549 26 249 4.8 8.0 0.00 0.00 0.00 43 1010.4
20260505162047 26 230 11.3 16.1 0.00 0.00 0.00 43 1010.7
20260505161543 26 187 1.6 3.2 0.00 0.00 0.00 46 1010.6
20260505161041 26 251 9.7 11.3 0.00 0.00 0.00 45 1010.6
20260505160539 26 153 4.8 4.8 0.00 0.00 0.00 45 1010.6
20260505153015 25 191 1.6 3.2 0.00 0.00 0.00 48 1010.9
20260505152512 25 256 8.0 9.7 0.00 0.00 0.00 47 1011.0
20260505152008 24 185 4.8 4.8 0.00 0.00 0.00 49 1011.1
20260505151503 24 218 0.0 1.6 0.00 0.00 0.00 52 1011.1
20260505151000 24 224 0.0 1.6 0.00 0.00 0.00 50 1011.0
20260505150457 24 207 3.2 3.2 0.00 0.00 0.00 51 1011.1
20260505140427 21 224 6.4 9.7 0.00 0.00 0.00 58 1012.0
20260505124840 18 251 4.8 8.0 0.00 0.00 0.00 64 1011.8
20260505124337 18 198 4.8 4.8 0.00 0.00 0.00 65 1012.0
20260505123833 18 212 1.6 1.6 0.00 0.00 0.00 66 1012.2
20260505123330 18 216 0.0 0.0 0.00 0.00 0.00 67 1012.0
20260505122826 18 226 6.4 9.7 0.00 0.00 0.00 66 1012.0
20260505122324 18 213 1.6 3.2 0.00 0.00 0.00 67 1011.9
20260505121820 18 253 1.6 1.6 0.00 0.00 0.00 68 1011.9
20260505121317 18 224 1.6 3.2 0.00 0.00 0.00 68 1011.6
20260505120813 17 227 0.0 0.0 0.00 0.00 0.00 70 1011.8
20260505120309 17 218 0.0 0.0 0.00 0.00 0.00 73 1011.8
20260505115808 16 219 0.0 0.0 0.00 0.00 0.00 74 1011.8
20260505115306 15 227 0.0 0.0 0.00 0.00 0.00 78 1012.1
20260505114803 15 228 0.0 0.0 0.00 0.00 0.00 81 1011.8
20260505114300 14 226 0.0 0.0 0.00 0.00 0.00 86 1012.1
20260505113756 13 226 0.0 0.0 0.00 0.00 0.00 90 1012.0
20260505113252 12 246 0.0 0.0 0.00 0.00 0.00 90 1011.9
20260505112748 12 228 0.0 0.0 0.00 0.00 0.00 91 1011.9
20260505112246 11 243 0.0 0.0 0.00 0.00 0.00 91 1011.9
20260505111741 11 241 0.0 0.0 0.00 0.00 0.00 91 1011.9
20260505111237 11 229 0.0 0.0 0.00 0.00 0.00 92 1012.2
20260505110733 10 230 0.0 0.0 0.00 0.00 0.00 92 1011.8
20260505110231 10 228 0.0 0.0 0.00 0.00 0.00 92 1011.9
20260505102206 10 231 0.0 1.6 0.00 0.00 0.00 90 1011.9
20260505101705 10 237 0.0 0.0 0.00 0.00 0.00 90 1011.9
20260505101201 10 206 0.0 0.0 0.00 0.00 0.00 90 1011.8
20260505100657 9 227 0.0 0.0 0.00 0.00 0.00 90 1011.9
20260505100154 9 214 0.0 0.0 0.00 0.00 0.00 90 1012.1
20260505095649 8 227 0.0 0.0 0.00 0.00 0.00 90 1011.9
20260505095147 8 230 0.0 0.0 0.00 0.00 0.00 90 1011.9
20260505094643 8 264 1.6 1.6 0.00 0.00 0.00 90 1012.1
20260505094139 8 238 0.0 0.0 0.00 0.00 0.00 90 1011.7
20260505093636 8 234 0.0 0.0 0.00 0.00 0.00 90 1011.7
20260505093133 8 213 0.0 0.0 0.00 0.00 0.00 90 1011.5
20260505092630 8 224 0.0 0.0 0.00 0.00 0.00 90 1011.4
20260505092129 9 269 0.0 1.6 0.00 0.00 0.00 90 1011.5
20260505091625 9 235 0.0 0.0 0.00 0.00 0.00 90 1011.1
20260505091124 9 245 0.0 1.6 0.00 0.00 0.00 90 1011.1
20260505090621 9 208 0.0 0.0 0.00 0.00 0.00 90 1011.0
20260505090119 8 234 0.0 0.0 0.00 0.00 0.00 90 1011.1
20260505085616 8 235 0.0 0.0 0.00 0.00 0.00 90 1011.2
20260505085114 8 230 0.0 0.0 0.00 0.00 0.00 90 1011.0
20260505084612 8 231 0.0 0.0 0.00 0.00 0.00 90 1011.1
20260505084110 8 229 0.0 0.0 0.00 0.00 0.00 90 1011.0
20260505083607 8 232 0.0 0.0 0.00 0.00 0.00 89 1011.0
20260505083103 8 232 0.0 0.0 0.00 0.00 0.00 89 1011.0
20260505082559 8 235 0.0 0.0 0.00 0.00 0.00 89 1011.1
20260505082057 8 238 0.0 0.0 0.00 0.00 0.00 89 1011.0
20260505081553 8 231 0.0 0.0 0.00 0.00 0.00 90 1011.1
20260505081050 8 234 0.0 0.0 0.00 0.00 0.00 90 1011.1
20260505080546 8 238 0.0 0.0 0.00 0.00 0.00 89 1011.2
20260505080043 8 232 0.0 0.0 0.00 0.00 0.00 89 1011.1
20260505075539 8 236 0.0 0.0 0.00 0.00 0.00 89 1011.1
20260505075036 8 237 0.0 0.0 0.00 0.00 0.00 89 1011.1
20260505074533 8 226 0.0 0.0 0.00 0.00 0.00 89 1011.3
20260505074030 8 232 0.0 0.0 0.00 0.00 0.00 89 1011.2
20260505073527 8 242 0.0 0.0 0.00 0.00 0.00 89 1011.0
20260505073026 8 227 0.0 0.0 0.00 0.00 0.00 89 1011.1
20260505072521 8 232 0.0 0.0 0.00 0.00 0.00 89 1011.1
20260505072017 8 233 0.0 0.0 0.00 0.00 0.00 89 1011.0
20260505071513 8 233 0.0 0.0 0.00 0.00 0.00 89 1011.1
20260505071011 8 229 0.0 0.0 0.00 0.00 0.00 89 1010.7
20260505070509 8 231 0.0 0.0 0.00 0.00 0.00 89 1010.8
20260505070004 8 228 0.0 0.0 0.00 0.00 0.00 88 1010.9
20260505065500 8 237 0.0 0.0 0.00 0.00 0.00 88 1011.0
20260505064957 8 235 0.0 0.0 0.00 0.00 0.00 88 1011.0
20260505064454 8 248 0.0 0.0 0.00 0.00 0.00 88 1011.0
20260505063952 8 233 0.0 0.0 0.00 0.00 0.00 88 1010.9
20260505063449 8 232 0.0 0.0 0.00 0.00 0.00 88 1011.0
20260505062945 8 240 0.0 0.0 0.00 0.00 0.00 87 1010.9
20260505062442 8 236 0.0 0.0 0.00 0.00 0.00 87 1011.2
20260505061939 8 249 0.0 0.0 0.00 0.00 0.00 87 1010.9
20260505061437 8 233 0.0 0.0 0.00 0.00 0.00 87 1010.9
20260505060934 8 232 0.0 0.0 0.00 0.00 0.00 86 1010.8
20260505060431 8 233 0.0 0.0 0.00 0.00 0.00 86 1011.0
20260505055927 9 232 0.0 0.0 0.00 0.00 0.00 85 1011.1
20260505055424 9 242 0.0 0.0 0.00 0.00 0.00 85 1011.0
20260505054921 9 233 0.0 0.0 0.00 0.00 0.00 84 1011.1
20260505054418 10 231 0.0 0.0 0.00 0.00 0.00 84 1011.0
20260505053916 10 234 0.0 0.0 0.00 0.00 0.00 83 1011.0
20260505053413 10 233 0.0 0.0 0.00 0.00 0.00 82 1011.2
20260505052909 10 250 0.0 0.0 0.00 0.00 0.00 82 1011.0
20260505052406 11 234 0.0 0.0 0.00 0.00 0.00 82 1011.1
20260505051903 11 259 0.0 0.0 0.00 0.00 0.00 81 1011.1
20260505051401 11 229 0.0 0.0 0.00 0.00 0.00 81 1010.9
20260505050859 11 228 0.0 0.0 0.00 0.00 0.00 80 1011.2
20260505050357 11 233 0.0 0.0 0.00 0.00 0.00 79 1011.1
20260505041324 15 225 0.0 0.0 0.00 0.00 0.00 67 1011.1
20260505040821 15 215 1.6 1.6 0.00 0.00 0.00 66 1011.3
20260505040319 15 203 0.0 0.0 0.00 0.00 0.00 66 1011.2
20260505035815 14 227 0.0 0.0 0.00 0.00 0.00 68 1011.2
20260505035311 14 209 0.0 1.6 0.00 0.00 0.00 67 1011.2
20260505034809 14 214 1.6 1.6 0.00 0.00 0.00 68 1011.1
20260505034305 13 211 0.0 0.0 0.00 0.00 0.00 67 1011.2
20260505033802 12 220 0.0 0.0 0.00 0.00 0.00 71 1011.3
20260505033259 12 225 0.0 0.0 0.00 0.00 0.00 73 1011.2
20260505032758 12 230 0.0 0.0 0.00 0.00 0.00 71 1011.4
20260505032253 13 227 0.0 0.0 0.00 0.00 0.00 71 1011.5
20260505031750 13 226 0.0 0.0 0.00 0.00 0.00 69 1011.2
20260505031246 13 236 0.0 0.0 0.00 0.00 0.00 69 1011.2
20260505030744 13 224 0.0 0.0 0.00 0.00 0.00 68 1011.3
20260505030240 14 224 0.0 0.0 0.00 0.00 0.00 65 1011.3
20260505025736 14 219 0.0 0.0 0.00 0.00 0.00 64 1011.3
20260505025234 13 211 0.0 0.0 0.00 0.00 0.00 65 1011.4
20260505024732 13 201 0.0 0.0 0.00 0.00 0.00 65 1011.2
20260505024229 13 211 0.0 0.0 0.00 0.00 0.00 65 1011.4
20260505023726 13 226 0.0 0.0 0.00 0.00 0.00 68 1011.4
20260505023223 13 228 0.0 0.0 0.00 0.00 0.00 68 1011.5
20260505022721 12 231 0.0 0.0 0.00 0.00 0.00 70 1011.3
20260505022217 12 233 0.0 0.0 0.00 0.00 0.00 76 1011.5
20260505021714 11 214 0.0 0.0 0.00 0.00 0.00 77 1011.5
20260505021211 11 229 0.0 0.0 0.00 0.00 0.00 77 1011.7
20260505020707 11 222 0.0 0.0 0.00 0.00 0.00 77 1011.5
20260505020203 12 230 0.0 0.0 0.00 0.00 0.00 76 1011.7
20260505015700 12 228 0.0 0.0 0.00 0.00 0.00 74 1011.5
20260505015157 12 228 0.0 0.0 0.00 0.00 0.00 73 1011.4
20260505014654 12 232 0.0 0.0 0.00 0.00 0.00 73 1011.5
20260505014151 12 228 0.0 0.0 0.00 0.00 0.00 73 1011.4
20260505013648 13 229 0.0 0.0 0.00 0.00 0.00 72 1011.2
20260505013145 13 226 0.0 0.0 0.00 0.00 0.00 70 1011.2
20260505012643 13 224 0.0 0.0 0.00 0.00 0.00 69 1011.4
20260505012140 13 233 0.0 0.0 0.00 0.00 0.00 67 1011.2
20260505011635 14 226 0.0 0.0 0.00 0.00 0.00 65 1011.2
20260505011128 15 228 0.0 0.0 0.00 0.00 0.00 64 1011.1
20260505010628 15 223 0.0 0.0 0.00 0.00 0.00 62 1010.9
20260505010125 15 222 0.0 0.0 0.00 0.00 0.00 61 1010.7
20260505005621 15 227 0.0 0.0 0.00 0.00 0.00 59 1010.7
20260505005118 15 227 0.0 0.0 0.00 0.00 0.00 57 1010.9
20260505004615 15 217 0.0 0.0 0.00 0.00 0.00 56 1010.6
20260505004112 16 227 0.0 0.0 0.00 0.00 0.00 57 1010.7
20260505003609 16 222 0.0 0.0 0.00 0.00 0.00 54 1010.7
20260505003106 16 228 0.0 0.0 0.00 0.00 0.00 53 1010.6
20260505002602 17 216 0.0 0.0 0.00 0.00 0.00 51 1010.6
20260505002101 17 229 0.0 0.0 0.00 0.00 0.00 49 1010.7
20260505001558 17 225 0.0 0.0 0.00 0.00 0.00 48 1010.6
20260505001055 18 227 0.0 0.0 0.00 0.00 0.00 46 1010.4
20260505000552 18 221 1.6 3.2 0.00 0.00 0.00 44 1010.5
20260505000050 19 218 0.0 0.0 0.00 0.00 0.00 44 1010.1
20260504235546 20 227 0.0 0.0 0.00 0.00 0.00 42 1010.2
20260504235043 20 251 3.2 4.8 0.00 0.00 0.00 41 1010.0
20260504234540 20 237 3.2 3.2 0.00 0.00 0.00 42 1010.2
20260504234037 20 217 1.6 3.2 0.00 0.00 0.00 41 1010.0
20260504233532 20 218 1.6 3.2 0.00 0.00 0.00 41 1010.0
20260504233029 20 251 3.2 3.2 0.00 0.00 0.00 40 1009.8
20260504232526 21 233 3.2 3.2 0.00 0.00 0.00 40 1009.9
20260504232024 21 239 14.5 16.1 0.00 0.00 0.00 38 1009.7
20260504231520 21 222 4.8 8.0 0.00 0.00 0.00 38 1009.8
20260504231016 21 233 6.4 11.3 0.00 0.00 0.00 38 1009.8
20260504230513 21 228 0.0 0.0 0.00 0.00 0.00 38 1009.9
20260504230012 21 231 4.8 4.8 0.00 0.00 0.00 38 1009.6
20260504225508 22 228 4.8 4.8 0.00 0.00 0.00 37 1009.4
20260504225006 22 244 11.3 12.9 0.00 0.00 0.00 37 1009.5
20260504224502 22 189 4.8 9.7 0.00 0.00 0.00 38 1009.5
20260504223959 22 224 6.4 8.0 0.00 0.00 0.00 37 1009.6
20260504223455 22 217 4.8 8.0 0.00 0.00 0.00 37 1009.5
20260504222951 22 213 8.0 9.7 0.00 0.00 0.00 37 1009.5
20260504222449 22 259 4.8 9.7 0.00 0.00 0.00 37 1009.6
20260504221946 22 248 8.0 9.7 0.00 0.00 0.00 37 1009.6
20260504221443 22 238 3.2 3.2 0.00 0.00 0.00 37 1009.7
20260504220940 22 260 9.7 12.9 0.00 0.00 0.00 36 1009.6
20260504220436 22 232 4.8 8.0 0.00 0.00 0.00 36 1009.7
20260504215934 22 234 1.6 3.2 0.00 0.00 0.00 36 1009.9
20260504215431 23 252 4.8 8.0 0.00 0.00 0.00 37 1009.9
20260504214927 23 242 4.8 12.9 0.00 0.00 0.00 36 1009.8
20260504214423 22 243 0.0 0.0 0.00 0.00 0.00 37 1009.7
20260504213920 22 221 9.7 12.9 0.00 0.00 0.00 35 1010.2
20260504213416 22 253 3.2 9.7 0.00 0.00 0.00 37 1009.9
20260504212914 22 229 1.6 3.2 0.00 0.00 0.00 37 1009.7
20260504212409 22 197 6.4 9.7 0.00 0.00 0.00 37 1009.8
20260504211908 22 228 6.4 8.0 0.00 0.00 0.00 37 1009.9
20260504211403 22 249 6.4 9.7 0.00 0.00 0.00 36 1010.1
20260504210901 22 262 3.2 4.8 0.00 0.00 0.00 36 1010.2
20260504210358 22 340 11.3 12.9 0.00 0.00 0.00 35 1010.2
20260504205855 23 175 8.0 11.3 0.00 0.00 0.00 35 1010.1
20260504205353 22 248 4.8 4.8 0.00 0.00 0.00 38 1010.1
20260504204850 22 232 3.2 4.8 0.00 0.00 0.00 37 1010.1
20260504204349 22 205 11.3 14.5 0.00 0.00 0.00 35 1010.0
20260504203848 22 241 4.8 4.8 0.00 0.00 0.00 34 1010.1
20260504203344 23 193 4.8 4.8 0.00 0.00 0.00 36 1010.1
20260504202840 22 164 1.6 3.2 0.00 0.00 0.00 35 1010.1
20260504202337 22 249 1.6 1.6 0.00 0.00 0.00 36 1009.9
20260504201834 22 246 1.6 3.2 0.00 0.00 0.00 36 1010.1
20260504201331 22 282 3.2 4.8 0.00 0.00 0.00 36 1010.1